Wind_Speed
11 12 14 15 16 17 18 17 17 17 18 18 18 18 19 19 19 19 20 20 20 20 20 20 20 20 20 20 20 20 20 19 19 19 19 18 18 19 19 20 20 20 19
11 12 14 15 16 17 18 18 18 18 18 19 19 20 20 21 22 22 23 23 23 24 23 24 24 24 24 24 24 23 23 22 22 22 22 22 22 22 22 22 23 23 23
11 12 12 14 16 17 18 18 19 20 20 21 21 22 23 24 24 25 26 26 27 27 27 28 28 28 28 27 27 27 27 26 26 26 26 26 26 26 26 25 26 26 26
11 12 13 14 15 16 18 18 20 21 22 23 24 25 25 26 27 28 28 29 30 30 31 31 31 31 31 31 31 30 30 29 29 29 29 29 29 29 29 29 29 29 29
14 14 16 16 17 18 19 20 22 24 25 26 27 27 28 29 30 31 31 32 33 33 33 34 34 34 34 34 33 33 32 32 32 32 32 31 31 32 32 32 32 32 32
16 17 18 18 19 20 21 22 24 25 27 28 29 30 30 32 33 33 34 35 35 35 36 36 36 36 36 36 36 36 36 35 35 35 35 35 35 35 35 35 35 35 35
18 19 19 20 20 21 22 23 24 26 28 29 30 32 33 34 34 35 37 36 36 37 38 38 38 39 39 39 39 38 38 38 38 39 38 38 38 38 38 38 38 39 38
19 21 21 21 22 23 24 24 25 26 28 29 31 33 34 35 37 38 38 38 39 39 40 40 40 40 41 41 41 41 41 42 42 42 42 42 42 42 42 42 42 42 42
20 22 23 23 24 25 25 26 27 28 28 30 31 33 34 36 37 37 38 38 39 40 40 40 41 41 41 42 42 43 43 44 45 45 44 44 44 45 45 45 45 45 45
22 23 25 26 26 27 27 28 29 29 30 32 33 34 34 36 38 39 39 39 39 39 40 40 41 42 42 43 43 44 45 46 47 46 46 47 47 47 48 48 49 49 49
24 25 25 27 28 29 29 30 31 32 33 34 35 36 37 38 39 39 40 41 41 42 42 42 42 43 44 45 46 45 46 47 49 49 49 49 50 51 52 52 53 53 53
25 26 27 27 28 29 30 31 32 33 35 35 37 38 39 39 40 40 42 42 43 43 44 45 45 45 46 47 47 47 49 50 51 51 50 51 52 54 55 56 57 57 57
26 26 27 28 29 30 31 33 34 34 35 35 37 39 40 40 41 42 42 43 44 44 44 45 46 46 47 48 48 49 50 51 51 51 52 53 54 56 57 58 59 59 58
26 27 28 29 30 31 32 34 35 36 37 37 38 38 39 40 40 41 42 43 44 45 45 46 47 48 49 49 50 51 52 52 53 54 54 55 56 57 57 58 59 59 59
28 28 29 30 31 32 34 35 36 37 38 39 39 40 40 41 41 42 43 44 45 46 47 48 49 49 49 51 52 52 53 55 56 56 57 57 58 58 58 58 59 60 61
29 30 30 31 32 32 34 35 36 37 38 39 39 40 41 42 42 43 44 46 47 47 48 48 49 50 51 53 54 54 55 56 56 57 57 57 57 57 57 58 59 59 59
30 30 31 32 32 33 34 35 36 37 39 39 40 41 42 43 43 44 45 46 47 47 48 49 50 50 51 52 53 53 54 54 55 55 56 55 55 56 56 56 57 57 57
31 32 33 34 34 35 36 37 38 39 40 41 42 43 44 45 46 46 47 48 48 49 50 50 50 51 51 51 51 51 52 53 54 54 54 54 54 54 54 54 54 54 54
32 33 34 35 36 37 38 39 40 42 43 44 45 45 46 47 48 49 49 49 49 50 50 50 50 51 50 50 49 50 50 51 52 52 52 52 51 51 51 51 50 50 50
35 36 37 38 39 40 41 42 43 44 45 45 46 47 48 48 49 49 50 50 50 50 49 49 49 48 48 48 48 48 49 48 48 47 47 47 47 47 47 47 46 46 46
36 37 39 40 41 43 44 45 45 46 46 47 47 48 48 48 49 49 49 49 49 49 49 49 48 48 47 47 46 46 45 45 44 44 43 43 43 43 43 43 44 44 43
38 40 41 43 44 45 45 45 46 46 47 47 48 48 48 48 47 47 46 46 46 46 45 45 45 44 44 43 43 42 42 41 41 40 40 40 39 39 39 40 40 39 38
40 41 42 43 43 44 44 45 45 45 46 45 45 44 44 43 42 42 42 42 41 41 41 41 41 40 40 40 39 39 38 38 37 37 36 36 36 36 36 35 35 35 35
40 41 41 41 42 42 42 42 42 42 42 41 41 40 39 39 38 38 38 38 38 38 38 37 37 37 36 36 35 35 34 34 34 33 33 33 32 32 32 32 32 32 31
39 40 40 40 40 40 40 40 40 40 40 39 38 38 37 36 36 36 36 35 35 35 34 33 33 33 32 32 31 31 31 30 30 29 29 29 29 29 29 29 28 27 27
39 39 39 39 39 39 38 38 38 37 37 36 35 35 34 34 34 34 33 32 32 31 30 29 29 29 28 28 28 27 27 27 27 26 26 26 26 26 25 25 24 23 23
Wind_Direction
214 214 216 218 222 225 227 227 232 235 237 241 242 244 246 249 252 256 260 262 264 266 269 271 273 276 277 278 280 281 280 279 280 282 282 282 282 281 280 280 280 280 280
217 219 224 228 231 232 232 235 239 243 244 245 247 249 252 255 258 260 262 263 265 267 269 271 273 274 276 278 278 278 278 277 278 280 281 281 281 281 280 279 278 278 278
226 227 231 236 236 237 238 243 247 248 250 251 253 255 257 259 260 262 264 265 267 269 270 272 273 274 275 276 277 276 276 275 276 277 278 279 279 279 279 278 277 276 277
239 238 241 242 243 243 248 251 253 254 255 257 259 261 262 263 264 266 267 268 269 270 272 273 273 274 274 275 275 274 274 274 275 275 276 277 278 278 277 277 277 276 276
248 247 248 248 250 252 255 257 256 256 257 259 260 263 265 266 267 267 268 269 270 272 273 274 274 273 273 273 273 273 274 273 273 274 275 275 276 276 276 276 276 275 275
253 252 253 255 256 256 258 259 259 258 258 260 262 264 266 268 269 269 269 270 271 272 272 272 273 273 273 273 273 273 273 273 273 274 274 275 275 275 275 276 276 276 275
256 257 258 259 260 260 261 262 263 262 262 263 265 265 267 269 269 270 271 272 272 273 273 273 273 273 273 272 273 273 273 273 274 274 275 275 275 275 275 275 275 276 276
259 261 261 261 263 263 264 265 266 267 266 266 267 267 268 269 270 272 274 273 272 272 273 272 273 274 274 274 273 272 273 273 275 275 274 274 275 276 276 276 276 276 276
260 260 262 264 266 266 267 268 269 269 269 269 270 270 270 270 270 272 273 275 275 275 274 273 272 273 274 274 274 274 273 273 275 276 275 275 276 276 275 275 275 276 276
263 264 265 266 268 268 268 269 270 271 271 272 272 273 273 273 272 273 274 275 275 275 274 273 273 274 274 274 274 274 274 274 275 275 275 275 276 276 276 275 275 276 276
264 266 267 269 272 272 272 272 274 275 274 274 274 274 275 274 274 274 274 274 274 273 273 273 274 274 275 274 274 274 274 275 275 275 275 275 276 276 276 276 276 276 276
268 270 271 274 275 275 274 275 277 278 277 276 277 277 276 276 277 276 275 275 274 274 273 274 274 274 275 275 276 276 275 275 276 276 276 276 277 277 277 278 278 277 277
270 273 276 276 277 278 277 277 279 279 279 278 279 278 278 279 278 278 278 277 275 274 274 274 275 275 276 276 277 278 277 277 277 277 278 278 278 278 278 278 278 278 278
275 277 278 279 279 280 279 279 279 279 279 280 280 281 281 280 279 279 280 279 277 276 276 276 277 277 277 277 277 278 278 278 278 278 278 279 279 279 279 278 278 278 278
278 278 278 278 279 279 280 281 281 280 281 281 281 281 281 281 281 280 280 280 280 279 278 278 278 277 277 277 277 277 278 279 279 279 279 280 280 280 280 280 279 279 279
279 280 281 281 281 282 283 282 282 282 282 283 283 282 282 282 282 281 281 280 280 280 279 279 280 280 279 279 280 280 280 280 280 280 280 279 280 280 280 280 280 280 280
283 284 285 285 286 286 286 285 285 286 285 285 284 284 284 285 284 284 283 283 283 282 282 282 282 282 282 282 282 281 281 281 281 281 280 280 280 281 281 281 281 281 281
285 286 287 287 288 288 288 287 288 288 287 287 287 287 287 286 285 284 284 284 283 283 283 283 282 282 282 282 282 282 282 282 281 281 280 281 281 281 281 281 281 282 282
287 288 288 288 289 289 289 289 289 288 288 287 287 287 286 286 285 284 284 284 284 284 284 284 284 284 284 283 283 284 284 283 283 282 282 282 281 281 282 282 282 283 284
288 289 289 289 290 290 290 290 289 289 288 288 287 287 287 286 286 285 285 285 285 285 284 284 285 285 285 285 285 285 285 285 285 284 284 284 283 283 284 284 285 285 286
289 290 290 290 291 291 291 290 290 290 290 289 289 288 288 287 287 287 286 286 286 286 286 286 286 286 286 286 287 287 287 286 286 285 285 285 286 285 286 286 286 286 287
291 291 292 292 292 292 292 292 292 291 291 290 290 289 289 288 288 288 288 289 289 289 288 288 288 288 288 288 289 289 288 287 287 287 286 287 287 286 287 288 288 287 287
294 294 295 295 294 293 293 293 293 293 293 292 292 292 292 291 291 292 292 293 293 292 291 291 290 289 289 290 289 289 288 288 287 287 287 287 288 288 287 288 289 288 288
296 297 297 296 296 296 296 296 295 295 295 295 294 294 294 294 294 294 294 295 294 294 293 292 291 291 291 291 290 290 290 290 289 288 288 288 289 289 289 289 290 291 289
298 298 298 298 297 297 297 297 297 297 296 296 296 295 295 295 296 296 297 297 297 296 295 294 294 293 291 291 291 292 292 292 291 290 290 290 291 292 291 291 290 290 290
299 299 299 299 299 298 298 299 299 299 298 298 298 298 298 297 297 298 298 298 298 297 297 297 297 296 294 293 294 294 295 295 295 294 293 293 294 294 294 292 291 291 291
Height
5832 5833 5835 5837 5839 5842 5844 5847 5849 5851 5852 5854 5855 5856 5858 5859 5860 5860 5861 5862 5862 5862 5862 5862 5862 5861 5861 5861 5860 5860 5859 5858 5858 5857 5856 5855 5854 5853 5853 5852 5851 5850 5850
5831 5832 5834 5835 5837 5839 5841 5843 5846 5848 5849 5850 5851 5852 5854 5854 5855 5856 5856 5857 5857 5857 5857 5857 5856 5856 5856 5855 5855 5854 5854 5853 5853 5852 5851 5850 5849 5848 5847 5847 5846 5845 5844
5829 5831 5832 5833 5834 5835 5838 5840 5842 5844 5845 5846 5847 5848 5849 5849 5850 5850 5850 5851 5851 5851 5851 5851 5850 5850 5849 5849 5848 5848 5847 5847 5846 5845 5844 5844 5843 5842 5841 5840 5840 5839 5838
5828 5829 5830 5830 5831 5833 5835 5837 5838 5839 5840 5841 5842 5843 5843 5844 5844 5844 5844 5844 5844 5844 5844 5843 5843 5843 5842 5842 5841 5840 5840 5840 5839 5838 5837 5836 5835 5834 5833 5833 5832 5831 5831
5825 5826 5827 5828 5829 5830 5831 5832 5833 5834 5834 5835 5836 5837 5837 5837 5837 5837 5837 5837 5836 5836 5836 5835 5835 5834 5833 5833 5833 5832 5832 5831 5831 5830 5829 5828 5827 5826 5825 5824 5824 5823 5822
5821 5822 5823 5824 5825 5825 5826 5827 5827 5828 5828 5829 5829 5829 5830 5829 5829 5829 5828 5828 5828 5827 5826 5826 5825 5825 5824 5824 5823 5823 5822 5822 5821 5820 5820 5819 5818 5817 5816 5815 5814 5813 5813
5817 5817 5818 5819 5820 5820 5821 5821 5821 5821 5821 5822 5822 5822 5822 5822 5821 5820 5820 5819 5819 5818 5817 5816 5815 5815 5814 5814 5813 5813 5812 5811 5811 5810 5810 5809 5808 5807 5806 5805 5803 5803 5802
5812 5813 5813 5813 5814 5814 5815 5815 5814 5814 5814 5814 5814 5813 5813 5813 5812 5811 5810 5810 5809 5808 5807 5806 5805 5804 5803 5803 5802 5802 5801 5800 5799 5798 5798 5797 5796 5795 5794 5793 5792 5791 5791
5806 5807 5807 5808 5808 5808 5808 5808 5807 5807 5807 5806 5805 5805 5804 5803 5802 5801 5800 5799 5799 5798 5796 5795 5794 5794 5792 5791 5791 5790 5789 5788 5787 5786 5786 5784 5783 5782 5781 5780 5779 5778 5778
5801 5800 5801 5801 5802 5801 5801 5800 5799 5799 5798 5797 5796 5795 5794 5793 5792 5791 5790 5789 5788 5787 5785 5784 5783 5782 5781 5779 5778 5778 5777 5776 5774 5773 5772 5771 5770 5768 5767 5766 5765 5764 5763
5794 5794 5794 5794 5794 5793 5793 5792 5791 5789 5788 5788 5786 5785 5784 5783 5781 5780 5779 5778 5777 5775 5774 5773 5771 5770 5768 5767 5766 5765 5764 5762 5761 5760 5759 5757 5756 5754 5752 5750 5749 5748 5747
5787 5787 5786 5786 5786 5785 5784 5783 5782 5781 5779 5778 5776 5775 5773 5772 5770 5769 5768 5766 5764 5763 5762 5760 5759 5757 5755 5754 5752 5751 5750 5749 5747 5746 5744 5743 5741 5739 5737 5734 5732 5731 5729
5779 5779 5779 5778 5777 5776 5775 5774 5772 5771 5770 5768 5766 5764 5763 5761 5759 5758 5756 5754 5752 5751 5749 5748 5746 5744 5742 5740 5739 5737 5735 5733 5732 5731 5729 5727 5725 5723 5721 5718 5716 5713 5712
5772 5771 5770 5769 5768 5767 5765 5764 5762 5761 5759 5757 5755 5753 5751 5749 5747 5745 5743 5741 5739 5738 5736 5734 5732 5730 5728 5726 5724 5722 5720 5718 5716 5715 5713 5711 5708 5706 5703 5700 5698 5696 5694
5764 5763 5761 5760 5759 5757 5755 5754 5751 5749 5748 5746 5744 5742 5739 5737 5735 5733 5730 5728 5726 5724 5721 5719 5717 5715 5713 5711 5708 5706 5704 5702 5700 5698 5695 5693 5691 5688 5685 5682 5680 5677 5676
5755 5754 5752 5751 5749 5747 5745 5743 5741 5739 5737 5734 5732 5730 5727 5725 5722 5719 5717 5715 5712 5710 5707 5705 5702 5700 5698 5695 5692 5690 5688 5685 5683 5680 5678 5676 5673 5670 5668 5665 5661 5658 5656
5746 5745 5743 5741 5739 5737 5735 5733 5730 5728 5725 5722 5720 5717 5714 5711 5709 5706 5703 5701 5698 5696 5693 5690 5688 5685 5683 5680 5677 5674 5671 5668 5666 5663 5661 5658 5655 5653 5650 5647 5643 5640 5637
5737 5735 5733 5731 5729 5727 5724 5722 5719 5716 5713 5710 5707 5704 5701 5698 5695 5692 5689 5686 5683 5681 5678 5675 5672 5670 5667 5664 5661 5658 5655 5652 5649 5646 5643 5641 5638 5635 5633 5630 5626 5623 5620
5728 5726 5723 5721 5718 5716 5713 5710 5707 5704 5701 5697 5694 5691 5687 5684 5681 5677 5674 5671 5668 5665 5662 5659 5656 5654 5651 5648 5645 5642 5639 5635 5632 5629 5626 5624 5621 5619 5616 5614 5611 5608 5605
5718 5715 5713 5710 5707 5704 5701 5698 5695 5691 5688 5684 5680 5676 5673 5669 5666 5662 5659 5656 5652 5649 5646 5644 5641 5638 5635 5632 5629 5626 5623 5619 5616 5613 5610 5608 5606 5603 5601 5599 5596 5593 5590
5708 5705 5702 5699 5695 5692 5688 5685 5681 5677 5674 5670 5666 5662 5658 5655 5651 5647 5644 5640 5637 5634 5631 5628 5625 5622 5619 5616 5613 5610 5607 5604 5602 5599 5596 5594 5591 5589 5587 5584 5582 5579 5577
5697 5694 5690 5686 5683 5679 5675 5671 5667 5663 5659 5656 5651 5647 5644 5640 5636 5633 5629 5626 5623 5619 5616 5613 5610 5607 5604 5602 5599 5596 5593 5590 5588 5585 5583 5581 5578 5576 5573 5571 5568 5566 5563
5685 5682 5678 5674 5670 5666 5662 5658 5654 5650 5646 5641 5637 5633 5629 5626 5622 5619 5616 5612 5609 5606 5602 5599 5597 5594 5591 5588 5585 5583 5580 5577 5575 5573 5571 5568 5566 5564 5561 5559 5556 5554 5552
5674 5670 5666 5662 5658 5653 5649 5645 5641 5637 5633 5629 5625 5621 5617 5614 5610 5607 5603 5600 5597 5593 5590 5587 5584 5581 5578 5576 5573 5570 5568 5565 5563 5561 5559 5557 5555 5553 5550 5548 5546 5544 5542
5662 5658 5654 5650 5646 5642 5637 5633 5629 5625 5621 5617 5613 5609 5606 5602 5599 5596 5592 5589 5586 5582 5579 5575 5572 5570 5567 5565 5562 5560 5558 5555 5553 5551 5549 5547 5545 5543 5541 5539 5537 5534 5532
5651 5647 5643 5639 5635 5630 5626 5622 5618 5614 5610 5606 5602 5599 5595 5592 5589 5585 5582 5579 5575 5572 5569 5566 5563 5560 5558 5555 5553 5551 5549 5546 5544 5542 5540 5538 5536 5534 5532 5530 5528 5526 5524